Powrót do katalogu

EUTE 21A

EUTE W3

AktywnyŁącznośćGEO
NORAD 25673·PAYLOAD·🇪🇺 EU

Wystrzelony Apr 12, 1999 z Cape Canaveral Space Force Station

Loading…

TLE

ŚwieżeSource: Space-Track

Epoka: Sep 14, 2026, 07:32 UTC

1 25673U 99018A   26257.31416449 -.00000157  00000-0  00000-0 0  9998
2 25673  10.7458  49.8460 0008862 125.5830  53.0333  0.98430466 42439

Śledź EUTE 21A w czasie rzeczywistym z AllMySat

Download on the App Store